Find Starlink 32717

NORAD ID: 62491 Int'l Des: 2025-003 Owner: SPXS Country: US Constellation: starlink operational
LEOCIRCULAR

現在のビュー

3D地球を読み込み中...

About Starlink 32717

Starlink 32717 (NORAD 62491) is a starlink constellation satellite (v2 mini) launched Jan 6, 2025 by SPXS of US. It operates in LEO, CIRCULAR orbit with a mass of 730.00 kg.

Starlink 32717について

説明を読み込み中...

次回通過

Passes for default location (London). Set your location on the main map for personalized predictions.

高度履歴

Loading altitude history...

軌道要素

1 62491U 25003E 26169.45330969 .00011525 00000-0 42760-3 0 9991
2 62491 43.0014 79.7801 0001822 263.9624 96.1020 15.27587200 82086
Epoch: Jun 18, 2026 • Age: 12 hours

現在のステータス

高度 484.8 km
速度 7.62 km/s
衛星直下点 -12.46°S, 22.52°E
打ち上げ日 Jan 6, 2025
運用期間 1.4 years
タイプ internet

技術仕様

分類 Payload
質量 730.00 kg
乾燥質量 700.00 kg
総質量 730.00 kg
長さ 0.30 m
直径 4.10 m
スパン 29.00 m
形状 Box + pan
製造者 SPXS
バスタイプ Starlink V2M
フェーズステータス In Orbit
所有者/国 SPXS/US

Most Searched